This demonstration page uses our WeatherBlox Daily Observations layout. Learn more.

Left ArrowRight Arrow

39.01783, -85.05884

Hourly Observations for July 6, 2018

Temp ( °F °C ) Dew Point ( °F °C ) Humidity (%) Winds ( mph kmh ) Pressure ( in mb ) Visibility ( mi km ) Precip ( " mm )
12:52 am 00:52 Mostly Cloudy 77 25 70 21.1 79 79 NW 5 7 30.20 1023 10 16 0.00 0.00
1:52 am 01:52 Mostly Cloudy 74 23.3 69 20.6 85 85 WSW 3 6 30.19 1023 10 16 0.00 0.00
2:52 am 02:52 Mostly Cloudy 73 22.8 69 20.6 87 87 W 5 7 30.19 1022 10 16 0.00 0.00
3:52 am 03:52 Mostly Cloudy 73 22.8 69 20.6 87 87 WNW 6 9 30.19 1022 10 16 0.00 0.00
4:52 am 04:52 Cloudy 74 23.3 69 20.6 85 85 WNW 9 15 30.19 1023 10 16 0.00 0.00
5:52 am 05:52 Cloudy 74 23.3 69 20.6 85 85 NW 7 11 30.20 1023 10 16 0.00 0.00
6:52 am 06:52 Cloudy 74 23.3 69 20.6 85 85 NNW 9 15 30.20 1023 10 16 0.00 0.00
7:52 am 07:52 Mostly Cloudy 74 23.3 70 21.1 88 88 N 12 19 30.21 1023 10 16 0.00 0.00
8:52 am 08:52 Mostly Cloudy 77 25 70 21.1 79 79 N 9 15 30.21 1023 10 16 0.00 0.00
9:18 am 09:18 Mostly Cloudy 78 25.6 70 21.1 76 76 N 12 19 30.21 1023 10 16 0.00 0.00
9:52 am 09:52 Cloudy 79 26.1 70 21.1 74 74 NNE 13 20 30.22 1023 10 16 0.00 0.00
10:52 am 10:52 Cloudy 79 26.1 70 21.1 74 74 N 7 11 30.22 1024 8 13 0.00 0.00
11:16 am 11:16 Cloudy 79 26.1 70 21.1 74 74 N 9 15 30.24 1024 8 13 0.00 0.00
11:52 am 11:52 Cloudy with Light Rain 77 25 69 20.6 77 77 NNE 17 28 30.24 1024 8 13 0.00 0.03
12:52 pm 12:52 Cloudy 79 26.1 64 17.8 60 60 NNE 16 26 30.24 1024 10 16 0.00 0.03
1:52 pm 13:52 Cloudy 82 27.8 58 14.4 44 44 NE 17 28 30.23 1024 10 16 0.00 0.00
2:11 pm 14:11 Cloudy 82 27.8 60 15.6 47 47 NE 10 17 30.24 1024 10 16 0.00 0.00
2:52 pm 14:52 Cloudy 84 28.9 62 16.7 48 48 NE 12 19 30.21 1023 10 16 0.00 0.00
3:52 pm 15:52 Mostly Cloudy 84 28.9 61 16.1 46 46 NNE 15 24 30.19 1022 10 16 0.00 0.00
4:52 pm 16:52 Partly Cloudy 84 28.9 62 16.7 48 48 N 20 31 30.18 1022 10 16 0.00 0.00
5:52 pm 17:52 Mostly Sunny 85 29.4 58 14.4 40 40 NNE 16 26 30.17 1022 10 16 0.00 0.00
6:52 pm 18:52 Mostly Sunny 84 28.9 54 12.2 36 36 NNE 16 26 30.17 1022 10 16 0.00 0.00
7:52 pm 19:52 Mostly Sunny 81 27.2 54 12.2 39 39 NNE 16 26 30.18 1022 10 16 0.00 0.00
8:52 pm 20:52 Mostly Sunny 78 25.6 52 11.1 40 40 NE 17 28 30.20 1023 10 16 0.00 0.00
9:52 pm 21:52 Mostly Clear 75 23.9 50 10 41 41 NE 12 19 30.23 1024 10 16 0.00 0.00
10:52 pm 22:52 Clear 73 22.8 51 10.6 46 46 NNE 14 22 30.24 1024 10 16 0.00 0.00
11:52 pm 23:52 Clear 71 21.7 52 11.1 51 51 NNE 9 15 30.24 1024 10 16 0.00 0.00

Powered by AerisWeather